Location: Isle of Man Observatory
(54.1776°N, 4.6264°W)
Time: 09:11:51
(UTC+01:00)

Envisat - Visible Passes

Search period start: 25 January 2021 00:00
Search period end: 04 February 2021 00:00
Orbit: 764 x 766 km, 98.1° (Epoch: 24 January)

Date Brightness Start Highest point End Pass type
(mag) Time Alt. Az. Time Alt. Az. Time Alt. Az.
25 Jan 6.0 05:36:11 10° NE 05:38:37 13° E 05:41:03 10° ESE visible
25 Jan 3.2 07:13:28 10° NNE 07:18:35 73° ESE 07:23:39 10° S visible
25 Jan 4.3 18:35:04 10° S 18:39:56 46° W 18:44:51 10° NNW visible
26 Jan 4.4 06:36:49 10° NNE 06:41:35 39° E 06:46:19 10° SSE visible
26 Jan 3.4 08:15:55 10° N 08:20:40 40° WNW 08:25:23 10° SW visible
26 Jan 6.0 19:39:42 10° WSW 19:42:48 16° W 19:45:56 10° NW visible
27 Jan 5.5 06:00:34 10° NE 06:04:24 21° E 06:08:13 10° SE visible
27 Jan 2.9 07:38:54 10° NNE 07:43:59 74° WNW 07:49:03 10° SSW visible
27 Jan 5.2 19:01:06 10° SSW 19:05:32 30° W 19:10:00 10° NNW visible
28 Jan 6.2 05:25:47 10° ENE 05:27:01 11° E 05:28:14 10° E visible
28 Jan 3.6 07:02:04 10° NNE 07:07:08 60° ESE 07:12:10 10° S visible
28 Jan 3.9 18:23:29 10° S 18:28:28 56° W 18:33:30 10° NNW visible
29 Jan 4.8 06:25:31 10° NNE 06:30:05 32° E 06:34:37 10° SSE visible
29 Jan 3.2 08:04:25 10° N 08:09:19 48° WNW 08:14:11 10° SW visible
29 Jan 5.9 19:27:36 10° SW 19:31:14 19° W 19:34:54 10° NW visible
30 Jan 5.8 05:49:29 10° NE 05:52:50 17° E 05:56:11 10° SE visible
30 Jan 3.0 07:27:27 10° NNE 07:32:35 88° WNW 07:37:40 10° SSW visible
30 Jan 4.8 18:49:22 10° SSW 18:54:01 36° W 18:58:43 10° NNW visible
31 Jan 3.9 06:50:42 10° NNE 06:55:40 50° E 07:00:36 10° S visible
31 Jan 6.3 19:54:58 10° WSW 19:57:02 12° W 19:59:06 10° WNW visible
01 Feb 5.1 06:14:15 10° NE 06:18:34 27° E 06:22:51 10° SSE visible
01 Feb 3.0 07:52:56 10° N 07:57:57 58° WNW 08:02:55 10° SW visible
01 Feb 5.6 19:15:39 10° SW 19:19:41 23° W 19:23:45 10° NW visible
02 Feb 6.0 05:38:32 10° NE 05:41:16 14° E 05:43:58 10° ESE visible
02 Feb 3.1 07:16:02 10° NNE 07:21:10 78° ESE 07:26:15 10° SSW visible
02 Feb 4.5 18:37:42 10° S 18:42:32 43° W 18:47:24 10° NNW visible
03 Feb 4.3 06:39:21 10° NNE 06:44:11 41° E 06:48:58 10° SSE visible
03 Feb 3.5 08:18:31 10° N 08:23:13 38° WNW 08:27:53 10° SW visible
03 Feb 6.1 19:42:33 10° WSW 19:45:26 15° W 19:48:20 10° NW visible
